Little Rock AFB, AR

6:04 AM CDT on June 23, 2017 (GMT -0500)
Little Rock Air Force Base

Weather History for KLRF - March, 2014

Change the Weather History Date:

Wednesday, March 26, 2014

  Actual Average Record
Temperature  
Mean Temperature 42 °F -  
Max Temperature 58 °F 64 °F 83 °F (1991)
Min Temperature 26 °F 42 °F 26 °F (2014)
Degree Days  
Heating Degree Days 24    
Moisture  
Dew Point 25 °F    
Average Humidity 46    
Maximum Humidity 80    
Minimum Humidity 30    
Precipitation  
Precipitation 0.00 in - - ()
Sea Level Pressure  
Sea Level Pressure 30.23 in    
Wind  
Wind Speed 5 mph (SE)    
Max Wind Speed 14 mph    
Max Gust Speed 21 mph    
Visibility 10 miles    
Events Rain    
Averages and records for this station are not official NWS values.
T = Trace of Precipitation, MM = Missing Value Source: NWS Daily Summary

Daily Weather History Graph

Daily Weather History Graph

Search for Another Location

Airport or City:

Trip Planner

Search our weather history database for the weather conditions in past years. The results will help you decide how hot, cold, wet, or windy it might be!

Date:

Astronomy

Mar. 26, 2014 Rise Set
Actual Time 7:03 AM CDT 7:25 PM CDT
Civil Twilight 6:38 AM CDT 7:50 PM CDT
Nautical Twilight 6:08 AM CDT 8:20 PM CDT
Astronomical Twilight 5:38 AM CDT 8:50 PM CDT
Moon 4:02 AM CDT (3/26) 3:13 PM CDT (3/26)
Length of Visible Light 13h 11m
Length of Day
12h 21m
Waning Crescent, 21% of the Moon is Illuminated
Mar 26
Waning Crescent
Mar 30
New
Apr 7
First Quarter
Apr 15
Full
Apr 22
Last Quarter

Hourly Weather History & Observations

Time (CDT) Temp. Windchill Dew Point Humidity Pressure Visibility Wind Dir Wind Speed Gust Speed Precip Events Conditions
12:58 AM 32.4 °F - 21.2 °F 63% 30.33 in 10.0 mi Calm Calm - N/A   Clear
1:58 AM 30.6 °F - 21.4 °F 69% 30.32 in 10.0 mi Calm Calm - N/A   Clear
2:58 AM 29.3 °F - 23.4 °F 78% 30.32 in 10.0 mi Calm Calm - N/A   Clear
3:58 AM 28.2 °F - 21.9 °F 77% 30.32 in 10.0 mi Calm Calm - N/A   Clear
4:58 AM 27.5 °F - 21.9 °F 80% 30.31 in 10.0 mi Calm Calm - N/A   Clear
5:58 AM 26.8 °F - 21.0 °F 79% 30.31 in 10.0 mi Calm Calm - N/A   Clear
6:58 AM 27.1 °F 23.2 °F 21.2 °F 78% 30.34 in 10.0 mi West 3.5 mph - N/A   Clear
7:58 AM 30.0 °F - 23.7 °F 77% 30.36 in 10.0 mi Calm Calm - N/A   Clear
8:58 AM 40.1 °F 36.9 °F 22.5 °F 49% 30.38 in 10.0 mi ESE 4.6 mph - N/A   Clear
9:58 AM 44.8 °F 39.4 °F 20.7 °F 38% 30.37 in 10.0 mi East 10.4 mph - N/A   Clear
10:58 AM 48.0 °F - 18.7 °F 31% 30.36 in 10.0 mi South 10.4 mph - N/A   Clear
11:58 AM 50.9 °F - 20.8 °F 31% 30.32 in 10.0 mi SSE 10.4 mph - N/A   Clear
12:58 PM 52.9 °F - 23.7 °F 32% 30.30 in 10.0 mi South 11.5 mph 18.4 mph N/A   Clear
12:59 PM 53.6 °F - 23.0 °F 30% 30.27 in 10.0 mi SE 12.7 mph 18.4 mph N/A   Clear
1:26 PM 53.6 °F - 24.8 °F 33% 30.26 in 10.0 mi ESE 11.5 mph 17.3 mph N/A   Partly Cloudy
1:58 PM 54.9 °F - 25.3 °F 32% 30.25 in 10.0 mi SE 10.4 mph 18.4 mph N/A   Partly Cloudy
2:58 PM 56.5 °F - 25.7 °F 31% 30.21 in 10.0 mi SSE 12.7 mph - N/A   Clear
3:28 PM 57.2 °F - 26.6 °F 31% 30.18 in 10.0 mi ESE 13.8 mph 20.7 mph N/A   Clear
3:58 PM 57.0 °F - 25.3 °F 30% 30.17 in 10.0 mi SE 8.1 mph 17.3 mph N/A   Clear
4:58 PM 57.0 °F - 25.9 °F 30% 30.14 in 10.0 mi SSE 11.5 mph 20.7 mph N/A   Mostly Cloudy
5:58 PM 56.5 °F - 25.7 °F 31% 30.14 in 10.0 mi SE 8.1 mph - N/A   Mostly Cloudy
6:58 PM 55.6 °F - 27.1 °F 34% 30.15 in 10.0 mi SSE 8.1 mph - N/A   Overcast
7:58 PM 55.2 °F - 26.2 °F 33% 30.10 in 10.0 mi SE 5.8 mph 18.4 mph N/A   Scattered Clouds
8:03 PM 55.4 °F - 26.6 °F 33% 30.09 in 10.0 mi ESE 8.1 mph 18.4 mph N/A Rain Light Rain
8:28 PM 51.8 °F - 32.0 °F 47% 30.08 in 10.0 mi Variable 5.8 mph 19.6 mph N/A   Scattered Clouds
8:58 PM 52.5 °F - 32.9 °F 47% 30.12 in 10.0 mi SSE 6.9 mph - 0.00 in   Mostly Cloudy
9:58 PM 53.6 °F - 30.6 °F 41% 30.08 in 10.0 mi ESE 6.9 mph - N/A   Scattered Clouds
10:58 PM 54.1 °F - 29.7 °F 39% 30.07 in 10.0 mi SE 6.9 mph - N/A   Overcast
11:58 PM 53.2 °F - 31.6 °F 44% 30.06 in 10.0 mi ESE 4.6 mph - N/A   Overcast